Date String (YYYY-MM-DD hh:mm:ss) UTC,Instrument flags,absolute air pressure of the measurement (hPa),sample flow rate (lpm),inlet stack bypass flow (lpm),air temperature of the measurement (°C),ambient temperature measured by the external sensor (°C),aerosol sample conditioner tube jacket temperature (°C),OPC LED temperature (°C),internal box temperature (°C),relative humidity of the measurement (%),span deviation,mass concentration of particles derived from Lorenz-Mie calculation of OPC scattering (μg/m³),mass concentration of particles derived from Lorenz-Mie calculation of OPC scattering (μg/m³),mass concentration of particles derived from Lorenz-Mie calculation of OPC scattering (μg/m³)
DateTimeUTC,F1_M11,P_M11,Q1_M11,Q2_M11,T1_M11,T2_M11,T3_M11,T4_M11,T5_M11,U1_M11,ZSPAN_M11,X0_M11,X2_M11,X1_M11
2024-02-15 22:00:00,SystemResetWarning,0822.8,4.99,000.00,020.9,020.4,000.0,029.2,022.7,19.4,0001.9,0014.98,0009.88,0009.35
2024-02-15 22:01:00,SystemResetWarning,0823.0,4.99,000.00,020.9,020.4,000.0,029.2,022.7,19.6,0002.1,0015.19,0009.88,0009.35
2024-02-15 22:02:00,SystemResetWarning,0823.1,5.00,000.00,020.9,020.4,000.0,029.3,022.7,19.9,0002.2,0014.65,0009.90,0009.35
2024-02-15 22:03:00,SystemResetWarning,0822.8,5.00,000.00,020.9,020.4,000.0,029.3,022.7,19.9,0002.2,0014.54,0009.92,0009.36
2024-02-15 22:04:00,SystemResetWarning,0823.0,5.00,000.00,020.9,020.5,000.0,029.3,022.7,19.6,0002.0,0014.46,0009.94,0009.37
2024-02-15 22:05:00,SystemResetWarning,0823.0,5.00,000.00,020.9,020.5,000.0,029.3,022.7,19.5,0002.0,0014.34,0009.95,0009.37
2024-02-15 22:06:00,SystemResetWarning,0822.8,5.00,000.00,020.9,020.5,000.0,029.3,022.7,19.4,0002.1,0014.33,0009.95,0009.39
2024-02-15 22:07:00,SystemResetWarning,0822.8,5.00,000.00,020.9,020.5,000.0,029.3,022.7,19.5,0002.1,0014.22,0009.99,0009.41
2024-02-15 22:08:00,SystemResetWarning,0822.8,5.00,000.00,020.9,020.5,000.0,029.3,022.7,19.5,0002.4,0013.84,0010.02,0009.43
2024-02-15 22:09:00,SystemResetWarning,0823.0,5.00,000.00,020.9,020.5,000.0,029.3,022.7,19.5,0002.3,0014.58,0010.04,0009.45
2024-02-15 22:10:00,SystemResetWarning,0822.8,5.00,000.00,020.9,020.5,000.0,029.3,022.7,19.6,0002.3,0014.82,0010.09,0009.46
2024-02-15 22:11:00,SystemResetWarning,0823.0,5.00,000.00,020.9,020.5,000.0,029.3,022.7,19.6,0002.3,0015.22,0010.10,0009.47
2024-02-15 22:12:00,SystemResetWarning,0822.7,5.00,000.00,020.9,020.5,000.0,029.3,022.7,19.5,0002.3,0015.37,0010.14,0009.49
2024-02-15 22:13:00,SystemResetWarning,0822.9,5.01,000.00,020.9,020.5,000.0,029.3,022.7,19.4,0002.1,0015.69,0010.19,0009.52
2024-02-15 22:14:00,SystemResetWarning,0822.8,5.00,000.00,020.9,020.5,000.0,029.3,022.8,19.3,0002.0,0015.97,0010.21,0009.54
2024-02-15 22:15:00,SystemResetWarning,0823.0,5.00,000.00,020.9,020.5,000.0,029.3,022.8,19.3,0001.9,0016.68,0010.23,0009.55
2024-02-15 22:16:00,SystemResetWarning,0822.9,5.01,000.00,021.0,020.5,000.0,029.3,022.8,19.3,0001.9,0016.73,0010.25,0009.56
2024-02-15 22:17:00,SystemResetWarning,0822.9,5.00,000.00,021.0,020.5,000.0,029.3,022.8,19.3,0001.3,0017.05,0010.24,0009.56
2024-02-15 22:18:00,SystemResetWarning,0822.8,5.00,000.00,021.0,020.5,000.0,029.3,022.8,19.2,0001.7,0017.79,0010.30,0009.59
2024-02-15 22:19:00,SystemResetWarning,0822.7,5.00,000.00,021.0,020.5,000.0,029.3,022.8,19.2,0001.7,0017.86,0010.36,0009.64
2024-02-15 22:20:00,SystemResetWarning,0822.7,4.99,000.00,021.0,020.5,000.0,029.4,022.8,19.1,0001.4,0017.71,0010.30,0009.62
2024-02-15 22:21:00,SystemResetWarning,0822.7,5.00,000.00,021.0,020.5,000.0,029.4,022.8,19.1,0001.7,0018.03,0010.28,0009.62
2024-02-15 22:22:00,SystemResetWarning,0823.1,5.00,000.00,021.0,020.5,000.0,029.4,022.8,18.9,0001.8,0017.75,0010.29,0009.61
2024-02-15 22:23:00,SystemResetWarning,0822.8,5.00,000.00,021.0,020.5,000.0,029.4,022.8,18.9,0001.7,0017.42,0010.29,0009.60
2024-02-15 22:24:00,SystemResetWarning,0822.9,5.00,000.00,021.0,020.5,000.0,029.4,022.8,18.9,0001.6,0017.42,0010.26,0009.59
2024-02-15 22:25:00,SystemResetWarning,0823.0,5.00,000.00,021.0,020.5,000.0,029.4,022.8,19.0,0001.7,0017.35,0010.23,0009.57
2024-02-15 22:26:00,SystemResetWarning,0823.0,5.00,000.00,021.0,020.5,000.0,029.4,022.8,19.2,0002.1,0018.04,0010.21,0009.55
2024-02-15 22:27:00,SystemResetWarning,0822.9,5.00,000.00,021.0,020.5,000.0,029.4,022.8,19.2,0002.1,0018.65,0010.19,0009.52
2024-02-15 22:28:00,SystemResetWarning,0823.1,5.00,000.00,021.0,020.5,000.0,029.4,022.8,19.3,0002.3,0019.43,0010.18,0009.49
2024-02-15 22:29:00,SystemResetWarning,0823.0,5.01,000.00,021.0,020.5,000.0,029.4,022.8,19.3,0001.9,0018.76,0010.10,0009.41
2024-02-15 22:30:00,SystemResetWarning,0823.1,5.01,000.00,021.0,020.5,000.0,029.4,022.8,19.3,0001.4,0018.48,0009.97,0009.32
2024-02-15 22:31:00,SystemResetWarning,0822.9,5.00,000.00,021.0,020.6,000.0,029.4,022.9,19.4,0001.8,0017.48,0009.89,0009.25
2024-02-15 22:32:00,SystemResetWarning,0823.2,4.99,000.00,021.0,020.6,000.0,029.4,022.9,19.6,0001.5,0017.24,0009.80,0009.19
2024-02-15 22:33:00,SystemResetWarning,0823.3,5.00,000.00,021.1,020.6,000.0,029.4,022.9,19.7,0001.1,0018.07,0009.81,0009.16
2024-02-15 22:34:00,SystemResetWarning,0822.9,5.01,000.00,021.1,020.6,000.0,029.4,022.9,19.6,0001.3,0018.39,0009.78,0009.12
2024-02-15 22:35:00,SystemResetWarning,0823.2,5.01,000.00,021.1,020.6,000.0,029.4,022.9,19.7,0001.5,0018.23,0009.73,0009.06
2024-02-15 22:36:00,SystemResetWarning,0823.0,5.00,000.00,021.1,020.6,000.0,029.5,022.9,19.6,0001.3,0018.48,0009.63,0008.99
2024-02-15 22:37:00,SystemResetWarning,0823.0,4.99,000.00,021.1,020.6,000.0,029.5,022.9,19.8,0001.1,0018.04,0009.58,0008.95
2024-02-15 22:38:00,SystemResetWarning,0822.9,4.99,000.00,021.1,020.6,000.0,029.5,022.9,19.8,0001.1,0018.18,0009.54,0008.92
2024-02-15 22:39:00,SystemResetWarning,0823.1,4.99,000.00,021.1,020.6,000.0,029.5,022.9,19.8,0000.8,0017.86,0009.54,0008.92
2024-02-15 22:40:00,SystemResetWarning,0823.0,4.99,000.00,021.1,020.6,000.0,029.5,022.9,19.8,0000.6,0017.75,0009.54,0008.91
2024-02-15 22:41:00,SystemResetWarning,0823.0,5.00,000.00,021.1,020.6,000.0,029.5,022.9,19.8,0000.9,0017.77,0009.54,0008.89
2024-02-15 22:42:00,SystemResetWarning,0823.0,5.01,000.00,021.1,020.6,000.0,029.5,022.9,20.0,0000.9,0017.86,0009.56,0008.91
2024-02-15 22:43:00,SystemResetWarning,0823.0,5.01,000.00,021.1,020.6,000.0,029.5,022.9,20.3,0000.7,0017.52,0009.57,0008.92
2024-02-15 22:44:00,SystemResetWarning,0823.1,5.01,000.00,021.1,020.7,000.0,029.5,022.9,20.3,0000.9,0016.56,0009.54,0008.90
2024-02-15 22:45:00,SystemResetWarning,0823.1,5.00,000.00,021.1,020.7,000.0,029.5,022.9,20.2,0000.7,0016.20,0009.53,0008.89
2024-02-15 22:46:00,SystemResetWarning,0823.1,5.00,000.00,021.1,020.7,000.0,029.5,023.0,20.4,0000.6,0016.29,0009.55,0008.90
2024-02-15 22:47:00,SystemResetWarning,0823.1,5.00,000.00,021.2,020.7,000.0,029.5,023.0,20.6,0001.0,0015.90,0009.61,0008.94
2024-02-15 22:48:00,SystemResetWarning,0823.1,4.99,000.00,021.2,020.7,000.0,029.5,023.0,20.7,0000.8,0015.36,0009.65,0008.96
2024-02-15 22:49:00,SystemResetWarning,0823.1,5.00,000.00,021.2,020.7,000.0,029.5,023.0,20.7,0000.8,0014.64,0009.69,0008.99
2024-02-15 22:50:00,SystemResetWarning,0823.1,5.00,000.00,021.2,020.7,000.0,029.6,023.0,20.8,0001.3,0014.33,0009.65,0008.99
2024-02-15 22:51:00,SystemResetWarning,0823.1,5.00,000.00,021.2,020.8,000.0,029.6,023.0,20.7,0001.5,0014.46,0009.65,0009.01
2024-02-15 22:52:00,SystemResetWarning,0823.1,5.00,000.00,021.2,020.8,000.0,029.6,023.0,20.7,0001.5,0014.64,0009.73,0009.06
2024-02-15 22:53:00,SystemResetWarning,0823.2,5.01,000.00,021.2,020.8,000.0,029.6,023.0,20.6,0001.5,0014.98,0009.83,0009.12
2024-02-15 22:54:00,SystemResetWarning,0823.1,5.00,000.00,021.2,020.8,000.0,029.6,023.1,21.0,0001.3,0015.94,0009.97,0009.16
2024-02-15 22:55:00,SystemResetWarning,0823.1,5.00,000.00,021.2,020.8,000.0,029.6,023.1,21.3,0001.3,0016.15,0010.00,0009.21
2024-02-15 22:56:00,SystemResetWarning,0823.2,5.00,000.00,021.2,020.8,000.0,029.6,023.1,21.4,0001.5,0016.23,0010.07,0009.26
2024-02-15 22:57:00,SystemResetWarning,0823.3,4.99,000.00,021.2,020.8,000.0,029.6,023.1,21.4,0001.7,0016.29,0010.14,0009.31
2024-02-15 22:58:00,SystemResetWarning,0823.2,5.00,000.00,021.3,020.8,000.0,029.6,023.1,21.6,0001.8,0016.05,0010.21,0009.35
2024-02-15 22:59:00,SystemResetWarning,0823.1,5.01,000.00,021.3,020.8,000.0,029.6,023.1,21.6,0002.0,0016.43,0010.19,0009.36
